Time,TemperatureF,DewpointF,PressureIn,WindDirection,WindDirectionDegrees,WindSpeedMPH,WindSpeedGustMPH,Humidity,HourlyPrecipIn,Conditions,Clouds,dailyrainin,SoftwareType,DateUTC
2013-02-01 00:00:00,13.3,1.2,29.19,WNW,296,6.0,23.0,58,0.00,,,0.00,meteohub,2013-02-01 05:00:00,
2013-02-01 00:01:00,13.3,1.2,29.19,WSW,237,5.0,20.0,58,0.00,,,0.00,meteohub,2013-02-01 05:01:00,
2013-02-01 00:02:00,13.3,1.2,29.19,West,277,5.0,20.0,58,0.00,,,0.00,meteohub,2013-02-01 05:02:00,
2013-02-01 00:03:00,13.1,1.0,29.19,West,270,10.0,20.0,58,0.00,,,0.00,meteohub,2013-02-01 05:03:00,
2013-02-01 00:08:00,12.9,0.5,29.20,SW,219,12.0,20.0,57,0.00,,,0.00,meteohub,2013-02-01 05:08:00,
2013-02-01 00:13:00,12.7,0.0,29.20,SSW,212,8.0,17.0,56,0.00,,,0.00,meteohub,2013-02-01 05:13:00,
2013-02-01 00:18:00,12.7,0.0,29.21,WNW,293,3.0,17.0,56,0.00,,,0.00,meteohub,2013-02-01 05:18:00,
2013-02-01 00:24:00,12.6,-0.6,29.21,SW,223,12.0,24.0,55,0.00,,,0.00,meteohub,2013-02-01 05:24:00,
2013-02-01 00:29:00,12.4,-0.8,29.21,West,277,15.0,24.0,55,0.00,,,0.00,meteohub,2013-02-01 05:29:00,
2013-02-01 00:34:00,12.4,-0.4,29.22,West,274,8.0,24.0,56,0.00,,,0.00,meteohub,2013-02-01 05:34:00,
2013-02-01 00:39:00,12.2,-0.6,29.22,SE,140,1.0,28.0,56,0.00,,,0.00,meteohub,2013-02-01 05:39:00,
2013-02-01 00:44:00,12.2,-0.6,29.22,SSW,211,8.0,28.0,56,0.00,,,0.00,meteohub,2013-02-01 05:44:00,
2013-02-01 00:49:00,12.0,-0.2,29.22,SW,215,8.0,20.0,57,0.00,,,0.00,meteohub,2013-02-01 05:49:00,
2013-02-01 00:55:00,12.0,-0.2,29.23,West,280,10.0,20.0,57,0.00,,,0.00,meteohub,2013-02-01 05:55:00,
2013-02-01 01:00:00,12.0,0.5,29.23,North,5,3.0,20.0,59,0.00,,,0.00,meteohub,2013-02-01 06:00:00,
2013-02-01 01:05:00,11.8,0.7,29.23,SW,225,11.0,17.0,60,0.00,,,0.00,meteohub,2013-02-01 06:05:00,
2013-02-01 01:10:00,11.8,1.0,29.24,WSW,254,2.0,15.0,61,0.00,,,0.00,meteohub,2013-02-01 06:10:00,
2013-02-01 01:15:00,11.8,0.3,29.24,NNW,339,9.0,22.0,59,0.00,,,0.00,meteohub,2013-02-01 06:15:00,
2013-02-01 01:20:00,11.7,0.1,29.24,WSW,246,5.0,22.0,59,0.00,,,0.00,meteohub,2013-02-01 06:20:00,
2013-02-01 01:26:00,11.5,0.3,29.24,SW,223,1.0,22.0,60,0.00,,,0.00,meteohub,2013-02-01 06:26:00,
2013-02-01 01:31:00,11.5,0.3,29.24,SW,235,12.0,17.0,60,0.00,,,0.00,meteohub,2013-02-01 06:31:00,
2013-02-01 01:36:00,11.5,0.3,29.24,West,278,4.0,16.0,60,0.00,,,0.00,meteohub,2013-02-01 06:36:00,
2013-02-01 01:41:00,11.3,0.5,29.25,WSW,242,5.0,14.0,61,0.00,,,0.00,meteohub,2013-02-01 06:41:00,
2013-02-01 01:46:00,11.1,0.0,29.25,SW,234,5.0,14.0,60,0.00,,,0.00,meteohub,2013-02-01 06:46:00,
2013-02-01 01:51:00,11.1,-0.4,29.26,WNW,293,7.0,19.0,59,0.00,,,0.00,meteohub,2013-02-01 06:51:00,
2013-02-01 01:57:00,10.9,-0.2,29.26,ESE,114,1.0,19.0,60,0.00,,,0.00,meteohub,2013-02-01 06:57:00,
2013-02-01 02:02:00,10.9,-0.2,29.25,South,190,5.0,19.0,60,0.00,,,0.00,meteohub,2013-02-01 07:02:00,
2013-02-01 02:07:00,10.8,0.0,29.26,West,276,10.0,17.0,61,0.00,,,0.00,meteohub,2013-02-01 07:07:00,
2013-02-01 02:12:00,10.8,0.0,29.26,West,262,20.0,20.0,61,0.00,,,0.00,meteohub,2013-02-01 07:12:00,
2013-02-01 02:17:00,10.6,-0.6,29.26,WNW,289,13.0,21.0,60,0.00,,,0.00,meteohub,2013-02-01 07:17:00,
2013-02-01 02:22:00,10.6,-0.9,29.27,WSW,252,12.0,22.0,59,0.00,,,0.00,meteohub,2013-02-01 07:22:00,
2013-02-01 02:27:00,10.4,-1.1,29.26,SW,233,13.0,22.0,59,0.00,,,0.00,meteohub,2013-02-01 07:27:00,
2013-02-01 02:32:00,10.2,-1.7,29.26,SW,227,11.0,23.0,58,0.00,,,0.00,meteohub,2013-02-01 07:32:00,
2013-02-01 02:37:00,10.2,-1.7,29.26,West,261,7.0,23.0,58,0.00,,,0.00,meteohub,2013-02-01 07:37:00,
2013-02-01 02:42:00,10.0,-1.5,29.27,West,267,5.0,23.0,59,0.00,,,0.00,meteohub,2013-02-01 07:42:00,
2013-02-01 02:48:00,10.0,-1.8,29.28,NNW,342,1.0,22.0,58,0.00,,,0.00,meteohub,2013-02-01 07:48:00,
2013-02-01 02:53:00,9.9,-2.0,29.28,WSW,257,6.0,22.0,58,0.00,,,0.00,meteohub,2013-02-01 07:53:00,
2013-02-01 02:58:00,9.9,-1.7,29.28,West,273,6.0,24.0,59,0.00,,,0.00,meteohub,2013-02-01 07:58:00,
2013-02-01 03:03:00,9.7,-1.5,29.28,WNW,295,2.0,24.0,60,0.00,,,0.00,meteohub,2013-02-01 08:03:00,
2013-02-01 03:08:00,9.7,-1.5,29.29,SW,216,9.0,24.0,60,0.00,,,0.00,meteohub,2013-02-01 08:08:00,
2013-02-01 03:13:00,9.7,-1.5,29.28,WSW,252,9.0,18.0,60,0.00,,,0.00,meteohub,2013-02-01 08:13:00,
2013-02-01 03:18:00,9.5,-1.7,29.29,North,355,4.0,18.0,60,0.00,,,0.00,meteohub,2013-02-01 08:18:00,
2013-02-01 03:24:00,9.5,-1.7,29.29,West,261,10.0,19.0,60,0.00,,,0.00,meteohub,2013-02-01 08:24:00,
2013-02-01 03:29:00,9.3,-1.8,29.29,SW,215,10.0,19.0,60,0.00,,,0.00,meteohub,2013-02-01 08:29:00,
2013-02-01 03:34:00,9.3,-1.8,29.29,NNW,347,4.0,19.0,60,0.00,,,0.00,meteohub,2013-02-01 08:34:00,
2013-02-01 03:39:00,9.1,-1.8,29.29,SSE,163,3.0,20.0,60,0.00,,,0.00,meteohub,2013-02-01 08:39:00,
2013-02-01 03:44:00,9.1,-2.2,29.29,SW,231,2.0,20.0,59,0.00,,,0.00,meteohub,2013-02-01 08:44:00,
2013-02-01 03:49:00,9.1,-1.8,29.29,WSW,237,6.0,19.0,60,0.00,,,0.00,meteohub,2013-02-01 08:49:00,
2013-02-01 03:55:00,9.0,-2.4,29.30,SW,224,1.0,19.0,59,0.00,,,0.00,meteohub,2013-02-01 08:55:00,
2013-02-01 04:00:00,8.8,-2.6,29.30,East,82,3.0,24.0,59,0.00,,,0.00,meteohub,2013-02-01 09:00:00,
2013-02-01 04:05:00,8.6,-2.7,29.31,WSW,254,7.0,24.0,59,0.00,,,0.00,meteohub,2013-02-01 09:05:00,
2013-02-01 04:10:00,8.4,-2.9,29.31,SSE,155,1.0,16.0,59,0.00,,,0.00,meteohub,2013-02-01 09:10:00,
2013-02-01 04:15:00,8.2,-3.5,29.31,West,280,8.0,11.0,58,0.00,,,0.00,meteohub,2013-02-01 09:15:00,
2013-02-01 04:20:00,8.2,-3.5,29.32,NNW,331,2.0,17.0,58,0.00,,,0.00,meteohub,2013-02-01 09:20:00,
2013-02-01 04:25:00,8.1,-3.3,29.33,SW,235,0.0,22.0,59,0.00,,,0.00,meteohub,2013-02-01 09:25:00,
2013-02-01 04:31:00,8.1,-3.3,29.33,WSW,257,2.0,22.0,59,0.00,,,0.00,meteohub,2013-02-01 09:31:00,
2013-02-01 04:36:00,7.9,-3.5,29.33,SE,130,1.0,15.0,59,0.00,,,0.00,meteohub,2013-02-01 09:36:00,
2013-02-01 04:41:00,7.9,-3.5,29.34,NW,312,6.0,15.0,59,0.00,,,0.00,meteohub,2013-02-01 09:41:00,
2013-02-01 04:46:00,7.7,-3.3,29.35,SW,235,6.0,15.0,60,0.00,,,0.00,meteohub,2013-02-01 09:46:00,
2013-02-01 04:51:00,7.7,-3.3,29.35,West,267,3.0,12.0,60,0.00,,,0.00,meteohub,2013-02-01 09:51:00,
2013-02-01 04:56:00,7.5,-3.5,29.35,NW,317,3.0,13.0,60,0.00,,,0.00,meteohub,2013-02-01 09:56:00,
2013-02-01 05:01:00,7.5,-3.1,29.35,SSE,157,3.0,13.0,61,0.00,,,0.00,meteohub,2013-02-01 10:01:00,
2013-02-01 05:07:00,7.5,-3.1,29.36,West,269,9.0,13.0,61,0.00,,,0.00,meteohub,2013-02-01 10:07:00,
2013-02-01 05:12:00,7.5,-3.1,29.36,WSW,241,2.0,15.0,61,0.00,,,0.00,meteohub,2013-02-01 10:12:00,
2013-02-01 05:17:00,7.5,-2.7,29.36,NW,315,3.0,15.0,62,0.00,,,0.00,meteohub,2013-02-01 10:17:00,
2013-02-01 05:22:00,7.5,-2.4,29.36,WSW,252,1.0,15.0,63,0.00,,,0.00,meteohub,2013-02-01 10:22:00,
2013-02-01 05:27:00,7.5,-2.7,29.36,WSW,255,1.0,11.0,62,0.00,,,0.00,meteohub,2013-02-01 10:27:00,
2013-02-01 05:32:00,7.5,-2.4,29.37,ESE,113,3.0,11.0,63,0.00,,,0.00,meteohub,2013-02-01 10:32:00,
2013-02-01 05:37:00,7.3,-2.6,29.37,SW,236,1.0,12.0,63,0.00,,,0.00,meteohub,2013-02-01 10:37:00,
2013-02-01 05:42:00,7.3,-2.2,29.37,West,260,2.0,12.0,64,0.00,,,0.00,meteohub,2013-02-01 10:42:00,
2013-02-01 05:47:00,7.3,-2.2,29.38,SW,236,7.0,12.0,64,0.00,,,0.00,meteohub,2013-02-01 10:47:00,
2013-02-01 05:52:00,7.3,-2.2,29.38,WSW,254,3.0,12.0,64,0.00,,,0.00,meteohub,2013-02-01 10:52:00,
2013-02-01 05:57:00,7.3,-2.2,29.39,WSW,239,3.0,12.0,64,0.00,,,0.00,meteohub,2013-02-01 10:57:00,
2013-02-01 06:02:00,7.3,-2.2,29.39,WNW,283,7.0,13.0,64,0.00,,,0.00,meteohub,2013-02-01 11:02:00,
2013-02-01 06:07:00,7.3,-2.0,29.39,West,273,2.0,13.0,65,0.00,,,0.00,meteohub,2013-02-01 11:07:00,
2013-02-01 06:12:00,7.3,-2.2,29.39,West,272,4.0,13.0,64,0.00,,,0.00,meteohub,2013-02-01 11:12:00,
2013-02-01 06:17:00,7.3,-2.2,29.39,SW,219,1.0,13.0,64,0.00,,,0.00,meteohub,2013-02-01 11:17:00,
2013-02-01 06:22:00,7.2,-2.4,29.40,SW,216,2.0,13.0,64,0.00,,,0.00,meteohub,2013-02-01 11:22:00,
2013-02-01 06:27:00,7.2,-2.2,29.40,SW,219,4.0,13.0,65,0.00,,,0.00,meteohub,2013-02-01 11:27:00,
2013-02-01 06:32:00,7.2,-2.4,29.40,WNW,287,5.0,13.0,64,0.00,,,0.00,meteohub,2013-02-01 11:32:00,
2013-02-01 06:37:00,7.2,-2.2,29.41,NW,317,4.0,14.0,65,0.00,,,0.00,meteohub,2013-02-01 11:37:00,
2013-02-01 06:42:00,7.2,-2.2,29.41,SW,226,5.0,14.0,65,0.00,,,0.00,meteohub,2013-02-01 11:42:00,
2013-02-01 06:47:00,7.2,-1.8,29.41,WSW,251,8.0,14.0,66,0.00,,,0.00,meteohub,2013-02-01 11:47:00,
2013-02-01 06:52:00,7.2,-1.5,29.42,West,281,3.0,12.0,67,0.00,,,0.00,meteohub,2013-02-01 11:52:00,
2013-02-01 06:57:00,7.2,-1.5,29.42,WSW,246,3.0,9.0,67,0.00,,,0.00,meteohub,2013-02-01 11:57:00,
2013-02-01 07:02:00,7.2,-1.1,29.42,WSW,247,6.0,13.0,68,0.00,,,0.00,meteohub,2013-02-01 12:02:00,
2013-02-01 07:07:00,7.2,-1.1,29.42,WSW,254,4.0,15.0,68,0.00,,,0.00,meteohub,2013-02-01 12:07:00,
2013-02-01 07:12:00,7.2,-1.1,29.42,WSW,257,3.0,15.0,68,0.00,,,0.00,meteohub,2013-02-01 12:12:00,
2013-02-01 07:17:00,7.2,-1.1,29.43,SE,134,5.0,16.0,68,0.00,,,0.00,meteohub,2013-02-01 12:17:00,
2013-02-01 07:22:00,7.2,-1.5,29.43,WSW,238,2.0,17.0,67,0.00,,,0.00,meteohub,2013-02-01 12:22:00,
2013-02-01 07:27:00,7.2,-1.5,29.43,NW,323,2.0,17.0,67,0.00,,,0.00,meteohub,2013-02-01 12:27:00,
2013-02-01 07:32:00,7.2,-1.5,29.44,NNW,331,2.0,17.0,67,0.00,,,0.00,meteohub,2013-02-01 12:32:00,
2013-02-01 07:37:00,7.3,-1.3,29.44,WNW,284,5.0,11.0,67,0.00,,,0.00,meteohub,2013-02-01 12:37:00,
2013-02-01 07:42:00,7.3,-1.7,29.44,WNW,288,8.0,15.0,66,0.00,,,0.00,meteohub,2013-02-01 12:42:00,
2013-02-01 07:47:00,7.3,-1.7,29.45,NNW,332,0.0,15.0,66,0.00,,,0.00,meteohub,2013-02-01 12:47:00,
2013-02-01 07:52:00,7.3,-1.7,29.45,SW,229,7.0,15.0,66,0.00,,,0.00,meteohub,2013-02-01 12:52:00,
2013-02-01 07:57:00,7.3,-1.7,29.46,SW,232,12.0,12.0,66,0.00,,,0.00,meteohub,2013-02-01 12:57:00,
2013-02-01 08:02:00,7.3,-1.7,29.46,WSW,257,8.0,14.0,66,0.00,,,0.00,meteohub,2013-02-01 13:02:00,
2013-02-01 08:08:00,7.3,-1.3,29.46,WNW,299,6.0,14.0,67,0.00,,,0.00,meteohub,2013-02-01 13:08:00,
2013-02-01 08:13:00,7.3,-1.7,29.47,WNW,286,1.0,14.0,66,0.00,,,0.00,meteohub,2013-02-01 13:13:00,
2013-02-01 08:18:00,7.5,-1.5,29.47,West,281,0.0,11.0,66,0.00,,,0.00,meteohub,2013-02-01 13:18:00,
2013-02-01 08:23:00,7.5,-1.5,29.47,WSW,255,3.0,13.0,66,0.00,,,0.00,meteohub,2013-02-01 13:23:00,
2013-02-01 08:28:00,7.5,-1.8,29.48,NNW,331,1.0,13.0,65,0.00,,,0.00,meteohub,2013-02-01 13:28:00,
2013-02-01 08:33:00,7.7,-1.7,29.48,ESE,105,2.0,13.0,65,0.00,,,0.00,meteohub,2013-02-01 13:33:00,
2013-02-01 08:38:00,7.7,-1.7,29.49,West,262,1.0,13.0,65,0.00,,,0.00,meteohub,2013-02-01 13:38:00,
2013-02-01 08:44:00,7.7,-2.0,29.49,SE,128,2.0,13.0,64,0.00,,,0.00,meteohub,2013-02-01 13:44:00,
2013-02-01 08:49:00,7.7,-2.0,29.49,WNW,298,0.0,12.0,64,0.00,,,0.00,meteohub,2013-02-01 13:49:00,
2013-02-01 08:54:00,7.9,-1.8,29.50,ESE,119,2.0,12.0,64,0.00,,,0.00,meteohub,2013-02-01 13:54:00,
2013-02-01 08:59:00,8.1,-1.7,29.50,SSW,201,2.0,12.0,64,0.00,,,0.00,meteohub,2013-02-01 13:59:00,
2013-02-01 09:04:00,8.1,-1.7,29.50,SW,222,2.0,13.0,64,0.00,,,0.00,meteohub,2013-02-01 14:04:00,
2013-02-01 09:09:00,8.2,-1.5,29.51,SSW,207,3.0,13.0,64,0.00,,,0.00,meteohub,2013-02-01 14:09:00,
2013-02-01 09:14:00,8.4,-1.3,29.51,WSW,251,5.0,13.0,64,0.00,,,0.00,meteohub,2013-02-01 14:14:00,
2013-02-01 09:19:00,8.4,-1.7,29.52,SSE,153,3.0,14.0,63,0.00,,,0.00,meteohub,2013-02-01 14:19:00,
2013-02-01 09:25:00,8.4,-1.7,29.52,NNW,339,2.0,14.0,63,0.00,,,0.00,meteohub,2013-02-01 14:25:00,
2013-02-01 09:30:00,8.8,-0.9,29.52,West,263,7.0,14.0,64,0.00,,,0.00,meteohub,2013-02-01 14:30:00,
2013-02-01 09:35:00,8.8,-1.7,29.52,West,261,6.0,12.0,62,0.00,,,0.00,meteohub,2013-02-01 14:35:00,
2013-02-01 09:40:00,9.0,-1.5,29.53,SW,227,12.0,17.0,62,0.00,,,0.00,meteohub,2013-02-01 14:40:00,
2013-02-01 09:45:00,9.0,-1.5,29.54,WNW,301,1.0,17.0,62,0.00,,,0.00,meteohub,2013-02-01 14:45:00,
2013-02-01 09:50:00,9.1,-0.9,29.54,NW,322,4.0,16.0,63,0.00,,,0.00,meteohub,2013-02-01 14:50:00,
2013-02-01 09:55:00,9.1,-1.3,29.55,WNW,285,3.0,13.0,62,0.00,,,0.00,meteohub,2013-02-01 14:55:00,
2013-02-01 10:01:00,9.3,-1.1,29.55,West,264,3.0,15.0,62,0.00,,,0.00,meteohub,2013-02-01 15:01:00,
2013-02-01 10:06:00,9.1,-1.3,29.55,NNW,336,2.0,17.0,62,0.00,,,0.00,meteohub,2013-02-01 15:06:00,
2013-02-01 10:11:00,9.3,-1.1,29.55,NW,320,2.0,18.0,62,0.00,,,0.00,meteohub,2013-02-01 15:11:00,
2013-02-01 10:16:00,9.5,-1.3,29.55,West,272,15.0,18.0,61,0.00,,,0.00,meteohub,2013-02-01 15:16:00,
2013-02-01 10:21:00,9.3,-1.5,29.56,WNW,288,6.0,18.0,61,0.00,,,0.00,meteohub,2013-02-01 15:21:00,
2013-02-01 10:26:00,9.3,-1.5,29.57,West,275,8.0,17.0,61,0.00,,,0.00,meteohub,2013-02-01 15:26:00,
2013-02-01 10:32:00,9.7,-1.1,29.57,West,269,6.0,17.0,61,0.00,,,0.00,meteohub,2013-02-01 15:32:00,
2013-02-01 10:37:00,9.9,-0.6,29.57,NNW,344,1.0,17.0,62,0.00,,,0.00,meteohub,2013-02-01 15:37:00,
2013-02-01 10:42:00,9.9,-0.9,29.57,WNW,298,1.0,18.0,61,0.00,,,0.00,meteohub,2013-02-01 15:42:00,
2013-02-01 10:47:00,10.0,-0.8,29.57,SSW,200,2.0,18.0,61,0.00,,,0.00,meteohub,2013-02-01 15:47:00,
2013-02-01 10:52:00,10.2,-0.2,29.58,NW,308,8.0,18.0,62,0.00,,,0.00,meteohub,2013-02-01 15:52:00,
2013-02-01 10:57:00,10.8,0.0,29.58,West,266,5.0,15.0,61,0.00,,,0.00,meteohub,2013-02-01 15:57:00,
2013-02-01 11:02:00,10.9,0.1,29.58,West,271,16.0,16.0,61,0.00,,,0.00,meteohub,2013-02-01 16:02:00,
2013-02-01 11:07:00,10.8,-0.4,29.58,SW,223,3.0,18.0,60,0.00,,,0.00,meteohub,2013-02-01 16:07:00,
2013-02-01 11:12:00,11.1,0.3,29.58,NNE,24,3.0,18.0,61,0.00,,,0.00,meteohub,2013-02-01 16:12:00,
2013-02-01 11:17:00,11.5,0.7,29.58,WNW,282,4.0,18.0,61,0.00,,,0.00,meteohub,2013-02-01 16:17:00,
2013-02-01 11:22:00,11.5,0.3,29.59,NW,308,6.0,18.0,60,0.00,,,0.00,meteohub,2013-02-01 16:22:00,
2013-02-01 11:28:00,11.7,0.5,29.59,SSW,213,2.0,14.0,60,0.00,,,0.00,meteohub,2013-02-01 16:28:00,
2013-02-01 11:33:00,11.8,0.3,29.59,NW,313,5.0,14.0,59,0.00,,,0.00,meteohub,2013-02-01 16:33:00,
2013-02-01 11:38:00,11.7,0.1,29.59,NNW,340,2.0,16.0,59,0.00,,,0.00,meteohub,2013-02-01 16:38:00,
2013-02-01 11:43:00,11.7,0.5,29.60,NNE,31,1.0,16.0,60,0.00,,,0.00,meteohub,2013-02-01 16:43:00,
2013-02-01 11:48:00,11.7,0.1,29.60,NNW,347,2.0,14.0,59,0.00,,,0.00,meteohub,2013-02-01 16:48:00,
2013-02-01 11:53:00,11.7,0.5,29.60,NW,308,11.0,14.0,60,0.00,,,0.00,meteohub,2013-02-01 16:53:00,
2013-02-01 11:58:00,11.5,0.0,29.60,NNE,16,5.0,14.0,59,0.00,,,0.00,meteohub,2013-02-01 16:58:00,
2013-02-01 12:04:00,11.7,-0.2,29.60,NW,309,4.0,14.0,58,0.00,,,0.00,meteohub,2013-02-01 17:04:00,
2013-02-01 12:09:00,11.5,0.0,29.61,West,268,3.0,17.0,59,0.00,,,0.00,meteohub,2013-02-01 17:09:00,
2013-02-01 12:14:00,11.7,0.9,29.61,ENE,73,2.0,17.0,61,0.00,,,0.00,meteohub,2013-02-01 17:14:00,
2013-02-01 12:19:00,11.7,-0.2,29.62,West,274,3.0,17.0,58,0.00,,,0.00,meteohub,2013-02-01 17:19:00,
2013-02-01 12:24:00,11.7,-0.2,29.62,NNW,340,3.0,13.0,58,0.00,,,0.00,meteohub,2013-02-01 17:24:00,
2013-02-01 12:29:00,11.7,-0.6,29.62,NW,313,10.0,13.0,57,0.00,,,0.00,meteohub,2013-02-01 17:29:00,
2013-02-01 12:34:00,11.5,-0.8,29.62,West,271,2.0,16.0,57,0.00,,,0.00,meteohub,2013-02-01 17:34:00,
2013-02-01 12:39:00,11.7,-0.2,29.62,SSE,162,1.0,16.0,58,0.00,,,0.00,meteohub,2013-02-01 17:39:00,
2013-02-01 12:45:00,11.8,0.3,29.62,North,5,10.0,15.0,59,0.00,,,0.00,meteohub,2013-02-01 17:45:00,
2013-02-01 12:50:00,11.5,-0.8,29.63,North,0,4.0,15.0,57,0.00,,,0.00,meteohub,2013-02-01 17:50:00,
2013-02-01 12:55:00,11.1,-1.1,29.63,WSW,239,1.0,17.0,57,0.00,,,0.00,meteohub,2013-02-01 17:55:00,
2013-02-01 13:00:00,11.1,-0.8,29.63,West,279,3.0,17.0,58,0.00,,,0.00,meteohub,2013-02-01 18:00:00,
2013-02-01 13:05:00,11.1,-1.1,29.64,NW,313,5.0,17.0,57,0.00,,,0.00,meteohub,2013-02-01 18:05:00,
2013-02-01 13:10:00,11.1,-0.8,29.64,ENE,60,1.0,17.0,58,0.00,,,0.00,meteohub,2013-02-01 18:10:00,
2013-02-01 13:15:00,11.1,-0.8,29.64,NW,313,4.0,17.0,58,0.00,,,0.00,meteohub,2013-02-01 18:15:00,
2013-02-01 13:21:00,10.9,-1.3,29.65,NNE,27,2.0,14.0,57,0.00,,,0.00,meteohub,2013-02-01 18:21:00,
2013-02-01 13:26:00,10.9,-1.7,29.65,NW,325,5.0,13.0,56,0.00,,,0.00,meteohub,2013-02-01 18:26:00,
2013-02-01 13:31:00,10.9,-1.3,29.65,NNE,29,4.0,17.0,57,0.00,,,0.00,meteohub,2013-02-01 18:31:00,
2013-02-01 13:36:00,10.8,-1.5,29.65,West,271,3.0,19.0,57,0.00,,,0.00,meteohub,2013-02-01 18:36:00,
2013-02-01 13:41:00,10.6,-1.3,29.65,WNW,283,2.0,19.0,58,0.00,,,0.00,meteohub,2013-02-01 18:41:00,
2013-02-01 13:46:00,10.8,-1.1,29.66,NNW,329,7.0,19.0,58,0.00,,,0.00,meteohub,2013-02-01 18:46:00,
2013-02-01 13:51:00,10.8,-1.5,29.66,WSW,252,4.0,16.0,57,0.00,,,0.00,meteohub,2013-02-01 18:51:00,
2013-02-01 13:57:00,10.8,-1.1,29.66,WNW,294,6.0,16.0,58,0.00,,,0.00,meteohub,2013-02-01 18:57:00,
2013-02-01 14:02:00,10.8,-1.1,29.67,West,263,4.0,18.0,58,0.00,,,0.00,meteohub,2013-02-01 19:02:00,
2013-02-01 14:07:00,10.6,-1.7,29.67,WNW,295,12.0,18.0,57,0.00,,,0.00,meteohub,2013-02-01 19:07:00,
2013-02-01 14:12:00,10.8,-1.5,29.67,West,281,5.0,19.0,57,0.00,,,0.00,meteohub,2013-02-01 19:12:00,
2013-02-01 14:17:00,10.8,-1.5,29.68,West,264,0.0,19.0,57,0.00,,,0.00,meteohub,2013-02-01 19:17:00,
2013-02-01 14:22:00,10.8,-1.5,29.68,WSW,242,8.0,13.0,57,0.00,,,0.00,meteohub,2013-02-01 19:22:00,
2013-02-01 14:27:00,10.8,-1.1,29.68,West,277,5.0,11.0,58,0.00,,,0.00,meteohub,2013-02-01 19:27:00,
2013-02-01 14:32:00,10.8,-0.8,29.69,SW,232,0.0,12.0,59,0.00,,,0.00,meteohub,2013-02-01 19:32:00,
2013-02-01 14:37:00,10.6,-1.7,29.69,NNW,338,5.0,16.0,57,0.00,,,0.00,meteohub,2013-02-01 19:37:00,
2013-02-01 14:42:00,10.6,-1.3,29.70,West,275,3.0,16.0,58,0.00,,,0.00,meteohub,2013-02-01 19:42:00,
2013-02-01 14:47:00,10.4,-1.1,29.70,NNW,342,3.0,16.0,59,0.00,,,0.00,meteohub,2013-02-01 19:47:00,
2013-02-01 14:52:00,10.6,-0.6,29.71,NW,306,1.0,15.0,60,0.00,,,0.00,meteohub,2013-02-01 19:52:00,
2013-02-01 14:57:00,10.6,-0.6,29.71,NW,315,2.0,15.0,60,0.00,,,0.00,meteohub,2013-02-01 19:57:00,
2013-02-01 15:02:00,10.6,-0.2,29.71,North,355,2.0,12.0,61,0.00,,,0.00,meteohub,2013-02-01 20:02:00,
2013-02-01 15:07:00,10.6,-0.2,29.71,WNW,294,6.0,12.0,61,0.00,,,0.00,meteohub,2013-02-01 20:07:00,
2013-02-01 15:12:00,10.6,0.1,29.72,WNW,288,4.0,12.0,62,0.00,,,0.00,meteohub,2013-02-01 20:12:00,
2013-02-01 15:17:00,10.8,0.3,29.72,NW,311,6.0,12.0,62,0.00,,,0.00,meteohub,2013-02-01 20:17:00,
2013-02-01 15:22:00,10.8,0.0,29.72,WNW,284,6.0,12.0,61,0.00,,,0.00,meteohub,2013-02-01 20:22:00,
2013-02-01 15:27:00,10.6,-0.2,29.72,SW,223,2.0,11.0,61,0.00,,,0.00,meteohub,2013-02-01 20:27:00,
2013-02-01 15:32:00,10.6,-0.2,29.73,SSW,209,2.0,11.0,61,0.00,,,0.00,meteohub,2013-02-01 20:32:00,
2013-02-01 15:37:00,10.4,-0.4,29.73,SW,223,5.0,11.0,61,0.00,,,0.00,meteohub,2013-02-01 20:37:00,
2013-02-01 15:42:00,10.2,-0.6,29.73,NNW,333,3.0,12.0,61,0.00,,,0.00,meteohub,2013-02-01 20:42:00,
2013-02-01 15:47:00,10.2,-0.6,29.74,NW,323,1.0,14.0,61,0.00,,,0.00,meteohub,2013-02-01 20:47:00,
2013-02-01 15:52:00,10.2,-0.6,29.74,West,279,3.0,14.0,61,0.00,,,0.00,meteohub,2013-02-01 20:52:00,
2013-02-01 15:57:00,10.2,-0.6,29.74,WNW,293,3.0,14.0,61,0.00,,,0.00,meteohub,2013-02-01 20:57:00,
2013-02-01 16:02:00,10.0,-0.8,29.74,West,269,3.0,12.0,61,0.00,,,0.00,meteohub,2013-02-01 21:02:00,
2013-02-01 16:07:00,10.0,-0.4,29.75,North,5,4.0,12.0,62,0.00,,,0.00,meteohub,2013-02-01 21:07:00,
2013-02-01 16:12:00,9.9,-0.9,29.75,West,266,4.0,12.0,61,0.00,,,0.00,meteohub,2013-02-01 21:12:00,
2013-02-01 16:17:00,9.9,-0.9,29.75,North,355,6.0,12.0,61,0.00,,,0.00,meteohub,2013-02-01 21:17:00,
2013-02-01 16:22:00,9.7,-1.5,29.75,WNW,286,4.0,14.0,60,0.00,,,0.00,meteohub,2013-02-01 21:22:00,
2013-02-01 16:27:00,9.5,-1.7,29.76,WNW,287,3.0,14.0,60,0.00,,,0.00,meteohub,2013-02-01 21:27:00,
2013-02-01 16:32:00,9.3,-1.5,29.76,NE,40,3.0,14.0,61,0.00,,,0.00,meteohub,2013-02-01 21:32:00,
2013-02-01 16:37:00,9.3,-1.5,29.76,North,355,0.0,13.0,61,0.00,,,0.00,meteohub,2013-02-01 21:37:00,
2013-02-01 16:42:00,9.1,-1.3,29.76,NNE,14,3.0,13.0,62,0.00,,,0.00,meteohub,2013-02-01 21:42:00,
2013-02-01 16:47:00,9.1,-1.3,29.76,North,5,1.0,9.0,62,0.00,,,0.00,meteohub,2013-02-01 21:47:00,
2013-02-01 16:52:00,9.0,-1.5,29.77,West,267,0.0,9.0,62,0.00,,,0.00,meteohub,2013-02-01 21:52:00,
2013-02-01 16:57:00,9.0,-1.5,29.77,NNE,21,0.0,10.0,62,0.00,,,0.00,meteohub,2013-02-01 21:57:00,
2013-02-01 17:02:00,8.8,-1.7,29.77,WNW,296,0.0,10.0,62,0.00,,,0.00,meteohub,2013-02-01 22:02:00,
2013-02-01 17:07:00,8.8,-1.7,29.77,West,276,1.0,10.0,62,0.00,,,0.00,meteohub,2013-02-01 22:07:00,
2013-02-01 17:12:00,8.6,-1.5,29.78,North,5,3.0,5.0,63,0.00,,,0.00,meteohub,2013-02-01 22:12:00,
2013-02-01 17:17:00,8.4,-1.7,29.78,NNW,330,4.0,6.0,63,0.00,,,0.00,meteohub,2013-02-01 22:17:00,
2013-02-01 17:22:00,8.6,-1.5,29.78,NNE,12,3.0,12.0,63,0.00,,,0.00,meteohub,2013-02-01 22:22:00,
2013-02-01 17:27:00,8.4,-1.7,29.78,North,5,0.0,12.0,63,0.00,,,0.00,meteohub,2013-02-01 22:27:00,
2013-02-01 17:32:00,8.4,-1.7,29.78,WNW,284,3.0,12.0,63,0.00,,,0.00,meteohub,2013-02-01 22:32:00,
2013-02-01 17:37:00,8.4,-1.7,29.78,NNW,330,0.0,7.0,63,0.00,,,0.00,meteohub,2013-02-01 22:37:00,
2013-02-01 17:42:00,8.2,-1.8,29.78,West,269,2.0,6.0,63,0.00,,,0.00,meteohub,2013-02-01 22:42:00,
2013-02-01 17:47:00,8.2,-1.5,29.79,North,5,2.0,6.0,64,0.00,,,0.00,meteohub,2013-02-01 22:47:00,
2013-02-01 17:52:00,8.1,-1.7,29.79,North,11,0.0,7.0,64,0.00,,,0.00,meteohub,2013-02-01 22:52:00,
2013-02-01 17:57:00,8.1,-1.3,29.80,WNW,302,0.0,7.0,65,0.00,,,0.00,meteohub,2013-02-01 22:57:00,
2013-02-01 18:02:00,8.1,-1.3,29.80,NE,42,0.0,7.0,65,0.00,,,0.00,meteohub,2013-02-01 23:02:00,
2013-02-01 18:07:00,7.9,-1.5,29.80,North,5,0.0,5.0,65,0.00,,,0.00,meteohub,2013-02-01 23:07:00,
2013-02-01 18:12:00,7.9,-1.5,29.80,NNE,24,0.0,5.0,65,0.00,,,0.00,meteohub,2013-02-01 23:12:00,
2013-02-01 18:17:00,7.7,-1.3,29.81,NNE,21,0.0,5.0,66,0.00,,,0.00,meteohub,2013-02-01 23:17:00,
2013-02-01 18:22:00,7.5,-1.5,29.81,North,5,1.0,5.0,66,0.00,,,0.00,meteohub,2013-02-01 23:22:00,
2013-02-01 18:27:00,7.5,-1.5,29.81,NNW,348,4.0,5.0,66,0.00,,,0.00,meteohub,2013-02-01 23:27:00,
2013-02-01 18:32:00,7.3,-1.3,29.81,NW,317,2.0,5.0,67,0.00,,,0.00,meteohub,2013-02-01 23:32:00,
2013-02-01 18:37:00,7.3,-1.3,29.81,WNW,286,0.0,4.0,67,0.00,,,0.00,meteohub,2013-02-01 23:37:00,
2013-02-01 18:42:00,7.2,-1.5,29.81,NE,44,1.0,5.0,67,0.00,,,0.00,meteohub,2013-02-01 23:42:00,
2013-02-01 18:47:00,7.0,-1.3,29.81,WNW,284,0.0,5.0,68,0.00,,,0.00,meteohub,2013-02-01 23:47:00,
2013-02-01 18:52:00,6.8,-1.5,29.82,West,259,1.0,5.0,68,0.00,,,0.00,meteohub,2013-02-01 23:52:00,
2013-02-01 18:57:00,6.6,-1.3,29.82,NNE,28,0.0,5.0,69,0.00,,,0.00,meteohub,2013-02-01 23:57:00,
2013-02-01 19:02:00,6.6,-1.3,29.82,NNW,342,2.0,4.0,69,0.00,,,0.00,meteohub,2013-02-02 00:02:00,
2013-02-01 19:07:00,6.6,-1.1,29.82,West,275,0.0,11.0,70,0.00,,,0.00,meteohub,2013-02-02 00:07:00,
2013-02-01 19:12:00,6.6,-1.1,29.83,NNE,20,1.0,11.0,70,0.00,,,0.00,meteohub,2013-02-02 00:12:00,
2013-02-01 19:17:00,6.6,-1.1,29.83,NNW,348,0.0,7.0,70,0.00,,,0.00,meteohub,2013-02-02 00:17:00,
2013-02-01 19:22:00,6.6,-1.1,29.83,West,259,2.0,6.0,70,0.00,,,0.00,meteohub,2013-02-02 00:22:00,
2013-02-01 19:27:00,6.6,-0.8,29.84,WNW,288,2.0,7.0,71,0.00,,,0.00,meteohub,2013-02-02 00:27:00,
2013-02-01 19:32:00,6.6,-0.8,29.84,North,9,1.0,8.0,71,0.00,,,0.00,meteohub,2013-02-02 00:32:00,
2013-02-01 19:37:00,6.4,-0.9,29.84,North,10,0.0,8.0,71,0.00,,,0.00,meteohub,2013-02-02 00:37:00,
2013-02-01 19:42:00,6.4,-0.9,29.85,North,5,0.0,8.0,71,0.00,,,0.00,meteohub,2013-02-02 00:42:00,
2013-02-01 19:47:00,6.4,-0.9,29.85,NNE,24,2.0,4.0,71,0.00,,,0.00,meteohub,2013-02-02 00:47:00,
2013-02-01 19:52:00,6.4,-0.6,29.85,NNE,13,1.0,4.0,72,0.00,,,0.00,meteohub,2013-02-02 00:52:00,
2013-02-01 19:57:00,6.6,-0.4,29.86,North,355,0.0,7.0,72,0.00,,,0.00,meteohub,2013-02-02 00:57:00,
2013-02-01 20:02:00,6.6,-0.4,29.86,NNW,333,0.0,7.0,72,0.00,,,0.00,meteohub,2013-02-02 01:02:00,
2013-02-01 20:07:00,6.6,-0.4,29.86,NNW,333,0.0,6.0,72,0.00,,,0.00,meteohub,2013-02-02 01:07:00,
2013-02-01 20:12:00,6.6,-0.2,29.86,NNE,18,2.0,4.0,73,0.00,,,0.00,meteohub,2013-02-02 01:12:00,
2013-02-01 20:17:00,6.6,0.1,29.86,NNW,344,0.0,4.0,74,0.00,,,0.00,meteohub,2013-02-02 01:17:00,
2013-02-01 20:22:00,6.6,0.3,29.87,North,355,2.0,5.0,75,0.00,,,0.00,meteohub,2013-02-02 01:22:00,
2013-02-01 20:27:00,6.4,0.1,29.87,NNE,15,3.0,9.0,75,0.00,,,0.00,meteohub,2013-02-02 01:27:00,
2013-02-01 20:32:00,6.4,0.0,29.87,NNE,14,3.0,9.0,74,0.00,,,0.00,meteohub,2013-02-02 01:32:00,
2013-02-01 20:37:00,6.1,-0.4,29.88,North,349,2.0,9.0,74,0.00,,,0.00,meteohub,2013-02-02 01:37:00,
2013-02-01 20:42:00,5.7,-0.8,29.88,NE,46,5.0,8.0,74,0.00,,,0.00,meteohub,2013-02-02 01:42:00,
2013-02-01 20:47:00,5.4,-1.1,29.88,North,5,3.0,10.0,74,0.00,,,0.00,meteohub,2013-02-02 01:47:00,
2013-02-01 20:52:00,5.0,-1.1,29.88,NNE,30,3.0,10.0,75,0.00,,,0.00,meteohub,2013-02-02 01:52:00,
2013-02-01 20:57:00,4.8,-1.3,29.89,NNW,348,4.0,10.0,75,0.00,,,0.00,meteohub,2013-02-02 01:57:00,
2013-02-01 21:02:00,4.6,-1.5,29.89,NNW,347,3.0,11.0,75,0.00,,,0.00,meteohub,2013-02-02 02:02:00,
2013-02-01 21:07:00,4.5,-1.7,29.89,North,5,3.0,11.0,75,0.00,,,0.00,meteohub,2013-02-02 02:07:00,
2013-02-01 21:12:00,4.5,-1.7,29.89,NNW,331,6.0,11.0,75,0.00,,,0.00,meteohub,2013-02-02 02:12:00,
2013-02-01 21:17:00,4.3,-1.8,29.89,North,355,5.0,10.0,75,0.00,,,0.00,meteohub,2013-02-02 02:17:00,
2013-02-01 21:22:00,3.9,-2.2,29.89,North,0,4.0,12.0,75,0.00,,,0.00,meteohub,2013-02-02 02:22:00,
2013-02-01 21:27:00,3.7,-2.7,29.90,NE,49,1.0,12.0,74,0.00,,,0.00,meteohub,2013-02-02 02:27:00,
2013-02-01 21:32:00,3.7,-2.7,29.90,North,0,6.0,12.0,74,0.00,,,0.00,meteohub,2013-02-02 02:32:00,
2013-02-01 21:37:00,3.6,-3.1,29.90,NNW,339,5.0,12.0,73,0.00,,,0.00,meteohub,2013-02-02 02:37:00,
2013-02-01 21:42:00,3.4,-3.3,29.90,NW,305,5.0,12.0,73,0.00,,,0.00,meteohub,2013-02-02 02:42:00,
2013-02-01 21:47:00,3.4,-3.6,29.91,North,11,7.0,10.0,72,0.00,,,0.00,meteohub,2013-02-02 02:47:00,
2013-02-01 21:53:00,3.2,-3.5,29.91,NNW,344,4.0,11.0,73,0.00,,,0.00,meteohub,2013-02-02 02:53:00,
2013-02-01 21:58:00,3.0,-3.6,29.92,NNW,344,5.0,11.0,73,0.00,,,0.00,meteohub,2013-02-02 02:58:00,
2013-02-01 22:03:00,3.0,-4.0,29.92,NNW,328,3.0,11.0,72,0.00,,,0.00,meteohub,2013-02-02 03:03:00,
2013-02-01 22:08:00,2.8,-4.2,29.93,NNE,22,6.0,11.0,72,0.00,,,0.00,meteohub,2013-02-02 03:08:00,
2013-02-01 22:13:00,2.8,-4.2,29.93,North,5,7.0,11.0,72,0.00,,,0.00,meteohub,2013-02-02 03:13:00,
2013-02-01 22:18:00,2.7,-4.5,29.93,NNW,346,5.0,11.0,71,0.00,,,0.00,meteohub,2013-02-02 03:18:00,
2013-02-01 22:24:00,2.7,-4.5,29.94,WSW,239,3.0,11.0,71,0.00,,,0.00,meteohub,2013-02-02 03:24:00,
2013-02-01 22:29:00,2.5,-4.7,29.94,NE,42,0.0,11.0,71,0.00,,,0.00,meteohub,2013-02-02 03:29:00,
2013-02-01 22:34:00,2.5,-4.7,29.94,NNW,348,4.0,10.0,71,0.00,,,0.00,meteohub,2013-02-02 03:34:00,
2013-02-01 22:39:00,2.3,-4.7,29.95,NNW,348,4.0,12.0,72,0.00,,,0.00,meteohub,2013-02-02 03:39:00,
2013-02-01 22:44:00,2.3,-4.4,29.95,North,5,3.0,12.0,73,0.00,,,0.00,meteohub,2013-02-02 03:44:00,
2013-02-01 22:49:00,1.9,-4.7,29.95,NNE,30,1.0,12.0,73,0.00,,,0.00,meteohub,2013-02-02 03:49:00,
2013-02-01 22:55:00,1.9,-4.4,29.96,NNE,23,0.0,8.0,74,0.00,,,0.00,meteohub,2013-02-02 03:55:00,
2013-02-01 23:00:00,1.8,-4.5,29.96,NNE,15,1.0,7.0,74,0.00,,,0.00,meteohub,2013-02-02 04:00:00,
2013-02-01 23:05:00,1.8,-4.5,29.96,North,355,2.0,5.0,74,0.00,,,0.00,meteohub,2013-02-02 04:05:00,
2013-02-01 23:10:00,1.6,-4.7,29.96,NNE,13,1.0,5.0,74,0.00,,,0.00,meteohub,2013-02-02 04:10:00,
2013-02-01 23:15:00,1.4,-4.9,29.96,NNE,15,1.0,7.0,74,0.00,,,0.00,meteohub,2013-02-02 04:15:00,
2013-02-01 23:20:00,1.2,-5.1,29.96,NNW,347,3.0,7.0,74,0.00,,,0.00,meteohub,2013-02-02 04:20:00,
2013-02-01 23:25:00,1.2,-5.1,29.96,North,10,5.0,8.0,74,0.00,,,0.00,meteohub,2013-02-02 04:25:00,
2013-02-01 23:31:00,1.0,-5.3,29.97,NE,39,0.0,8.0,74,0.00,,,0.00,meteohub,2013-02-02 04:31:00,
2013-02-01 23:36:00,0.9,-5.4,29.97,North,355,1.0,8.0,74,0.00,,,0.00,meteohub,2013-02-02 04:36:00,
2013-02-01 23:41:00,0.9,-5.3,29.97,NNE,13,2.0,5.0,75,0.00,,,0.00,meteohub,2013-02-02 04:41:00,
2013-02-01 23:46:00,0.9,-5.3,29.98,NNE,30,1.0,4.0,75,0.00,,,0.00,meteohub,2013-02-02 04:46:00,
2013-02-01 23:51:00,0.7,-5.4,29.98,North,351,1.0,3.0,75,0.00,,,0.00,meteohub,2013-02-02 04:51:00,
2013-02-01 23:57:00,0.5,-5.6,29.98,NE,42,0.0,3.0,75,0.00,,,0.00,meteohub,2013-02-02 04:57:00,